Airfield :
LOGIN :

Register | Disclaimer

   EN    FR    IT 

 










Legend :    VFR   Marginal VFR   IFR   Intensive IFR   Very Intensive IFR
Visi :
Ceiling :
>= 8 km
>= 3000ft
5 to 8 km
1000 to 3000 ft
1500m to 5 km
500 to 1000 ft
800 to 1500m
200 to 500 ft
< 800m
< 200 ft
Symbols :   Thunderstorms  Fog  Heavy snow  Heavy precipitations  Wind > 20 kt
SIGMETs :     Misc.  Thunderstorms  Icing  Turbulence  Mountain Waves  Volcanic Ashes






- Airport Elevation : 38 ft
- IATA code : ADX


EGQL - RAF Leuchars

CURRENT METAR :
  • 271150Z 26013KT 9999 VCSH BKN070 11/08 Q0998 RMK BLU

EXPIRED METARs :
  • 271050Z 27015KT 9999 RA OVC060 10/08 Q0997 RMK BLU
  • 270950Z 27015KT 9999 RA BKN050 10/08 Q0997 RMK BLU

TAF TAF EGQL
Valid from the 27 at 12:00 until the 27 at 21:00 UTC


271038Z 2712/2721 26012KT 9999 BKN045
TEMPO 2712/2716 27015G26KT
PROB30
TEMPO 2712/2718 4000 +SHRA SCT015CB



MET'MAP, your aeronautical weather chart ! - Copyright ORBIFLY December 2007 - Disclaimer

ORBIFLY MET'MAP TEAM :

Programming & Development : Alexandra Zaïnal
Concept & original design : Baudouin d'Aumeries
Assistance for programming : Marc-Olivier Méhu
Technical & hardware support : Manuel Goepfert

Contact : metmap@orbifly.com




SOURCES & CREDITS :

   NOAA